WHDW 08-09

operational
NORAD ID: 65172 Int'l Des: 2025-174 Owner: ZXW Country: CN
LEOCIRCULARPOLARONEWEB_TYPE

关于 WHDW 08-09

正在加载描述...

实时位置

正在加载3D地球...

即将过境

高度历史

Altitude vs Time

uPlot chart will show altitude changes over time

两行轨道根数

1 65172U 25174J 26061.11641551 .00000093 00000-0 18189-3 0 9991
2 65172 86.4885 288.1440 0001234 87.3260 272.8015 13.24421604 26612
Epoch: Mar 2, 2026 • Age: 30 hours

当前状态

高度 1174.9 km
速度 7.27 km/s
星下点 -17.58°S, 37.08°E
发射日期 Aug 13, 2025
运行时间 0.5 years
类型 other

技术详情

分类 Payload
质量 800.00 kg
干质量 800.00 kg
总质量 800.00 kg
长度 3.00 m
直径 1.00 m
跨度 10.00 m
形状 Box + 2 Pan
制造商 CAST
平台类型 Xingwang CL
阶段状态 In Orbit
所有者/国家 ZXW/CN

大型星座

Loading constellations...